Location: *
(40.9167°N, 9.5000°E)
Time: 08:04:27
(UTC+00:00)

IRIDIUM 104 - Pass Details

Date: 09 April 2020
Orbit: 776 x 779 km, 86.4° (Epoch: 03 June)

Event Time Altitude Azimuth Distance (km) Brightness Sun altitude
Rises 18:39:54 0° 356° (N) 3,272 7.9 -8.9°
Reaches altitude 10° 18:42:15 10° 357° (N) 2,340 7.1 -9.3°
Maximum altitude 18:47:31 87° 269° (W) 785 4.4 -10.2°
Drops below altitude 10° 18:52:43 10° 180° (S) 2,321 6.6 -11.2°
Sets 18:55:03 0° 180° (S) 3,244 7.3 -11.6°
